SCP
0 0 0 0 0 0 0 0 0 0 0 0 0 0 0 0 0 0 0 0 0 0 0 0 0 0 0 0 0 0 0 0 0 0 0 0 0 0
0 0 0 0 0 0 0 0 0 0 0 0 0 0 0 0 0 0 0 0 0 0 0 0 0 0 0 0 0 0 0 0 0 0 0 0 0 0
0 0 0 0 0 0 0 0 0 0 0 0 0 0 0 0 0 0 0 0 0 0 0 0 0 0 0 0 0 0 0 0 0 0 0 0 0 0
0 0 0 0 0 0 0 0 0 0 0 0 0 0 0 0 0 0 0 0 0 0 0 0 0 0 0 0 0 0 0 0 0 0 0 0 0 0
0 0 0 0 0 0 0 0 0 0 0 0 0 0 0 0 0 0 0 0 0 0 0 0 0 0 0 0 0 0 0 0 0 0 0 0 0 0
0 0 0 0 0 0 0 0 0 0 0 0 0 0 0 0 0 0 0 0 0 0 0 0 0 0 0 0 0 0 0 0 0 0 0 0 0 0
0 0 0 0 0 0 0 0 0 0 0 0 0 0 0 0 0 0 0 0 0 0 0 0 0 0 0 0 0 0 0 0 0 0 0 0 0 0
0 0 0 0 0 0 0 0 0 0 0 0 0 0 0 0 0 0 -0 0 0 0 0 0 0 0 0 0 0 0 0 0 0 0 0 0 0 0
0 0 0 0 0 0 0 0 0 0 0 0 0 0 0 0 0 0 0 0 0 0 0 0 0 0 0 0 0 0 0 0 0 0 0 0 0 0
0 0 0 0 0 0 0 0 0 0 0 0 0 0 0 0 0 0 0 0 0 0 0 0 0 0 0 0 0 0 0 0 0 0 0 0 0 0
0 0 0 0 0 0 0 0 0 0 0 0 0 0 0 0 0 0 0 0 0 0 0 0 0 0 0 0 0 0 0 0 0 0 0 0 0 0
0 0 0 0 0 0 0 0 0 0 0 0 0 0 0 0 0 0 0 0 0 0 0 0 0 0 0 0 0 0 0 0 0 0 0 0 0 0
0 0 0 0 0 0 0 0 0 0 0 0 0 0 0 0 0 0 0 0 0 0 0 0 0 0 0 0 0 0 0 0 0 0 0 0 0 0
0 0 0 0 0 0 0 0 0 0 0 0 0 0 0 0 0 0 0 0 0 0 0 0 0 0 0 0 0 0 0 0 0 0 0 0 0 0
0 0 0 0 0 0 0 0 0 0 0 0 0 0 0 0 0 0 0 0 0 0 0 0 0 0 0 0 0 0 0 0 0 0 0 0 0 0
0 0 0 0 0 0 0 0 0 0 0 0 0 0 0 0 0 0 0 0 0 0 0 0 0 0 0 0 0 0 0 0 0 0 0 0 0 0
0 0 0 0 0 0 0 0 0 0 0 0 0 0 0 0 0 0 0 0 0 0 0 0 0 0 0 0 0 0 0 0 0 0 0 0 0 0
0 0 0 0 0 0 0 0 0 0 0 0 0 0 0 0 0 0 0 0 0 0 0 0 0 0 0 0 0 0 0 0 0 0 0 0 0 0
0 0 0 0 0 0 0 0 0 0 0 0 0 0 0 0 0 0 0 0 0 0 0 0 0 0 0 0 0 0 0 0 0 0 0 0 -0 -0
0 0 0 0 0 0 0 0 0 0 0 0 0 0 0 0 0 0 0 0 0 0 0 0 0 0 0 0 0 0 0 0 0 0 0 0 0 0
0 0 -0 -0 -0 0 0 0 0 0 0 0 0 0 0 0 0 0 0 0 0 0 0 0 0 0 0 0 0 0 0 0 0 0 0 0 0 0
0 0 -0 -0 -0 0 0 0 0 0 0 0 0 0 0 0 0 0 -0 0 0 0 0 0 0 0 0 0 0 0 0 0 0 0 0 0 0 0
0 0 -0 -0 -0 0 0 0 0 0 0 0 0 0 0 0 0 0 -0 0 0 0 0 0 0 0 0 0 0 0 0 0 0 0 0 0 0 0
Wind_Speed
3 3 2 1 1 2 3 4 5 3 1 0 1 1 2 3 3 3 4 7 8 7 7 7 7 8 8 8 8 8 8 8 9 9 9 9 10 10
2 3 2 1 1 1 2 2 3 5 3 1 1 1 2 4 6 4 5 8 8 8 7 7 7 8 8 8 8 8 8 9 9 9 9 10 10 11
2 3 3 3 3 2 2 3 2 4 5 2 2 3 4 4 4 4 4 4 4 7 7 7 7 7 8 8 8 8 9 9 9 9 9 9 10 11
3 4 3 3 4 3 3 3 3 3 5 5 2 3 4 3 4 4 4 4 3 6 7 7 7 7 7 8 7 7 6 7 7 8 8 9 10 10
3 4 4 5 5 3 4 4 3 4 5 6 3 2 3 3 4 4 5 3 3 5 6 7 7 7 6 6 5 4 4 4 4 5 6 7 9 10
4 4 4 5 5 5 4 4 5 6 6 6 4 3 3 2 3 3 3 3 3 4 5 5 6 7 5 4 3 2 2 2 3 4 5 6 7 8
5 5 5 8 8 6 5 4 6 6 6 6 4 3 3 3 2 1 2 2 3 3 3 3 3 3 3 3 3 3 2 3 4 5 6 6 7 8
7 6 7 9 13 14 13 11 8 7 7 5 4 4 3 2 2 3 2 2 2 3 2 2 3 2 2 1 3 4 4 5 5 6 7 7 8 9
7 7 7 7 9 9 13 15 13 13 9 7 7 4 3 2 3 3 3 3 2 1 2 2 2 2 2 3 4 5 6 7 7 8 8 9 9 9
6 6 7 6 7 8 10 9 8 7 7 7 7 5 4 3 3 3 4 4 3 3 3 2 2 2 2 3 5 7 7 8 8 9 9 9 9 9
6 6 7 7 10 11 10 9 8 7 10 12 10 8 8 7 5 4 4 4 3 3 2 2 1 2 2 2 4 8 8 8 8 9 9 10 10 9
6 6 8 9 10 10 8 9 8 5 5 6 7 7 6 6 7 4 4 3 2 1 2 1 1 2 3 3 3 4 5 7 8 9 10 10 10 5
6 4 5 11 11 10 8 6 7 6 5 5 5 4 4 4 3 3 2 3 3 1 2 2 1 1 0 3 4 3 3 3 4 5 8 10 10 6
7 5 6 11 11 10 7 8 10 8 5 4 4 3 2 2 2 2 2 2 2 2 2 2 2 1 1 1 3 4 4 4 3 3 4 7 8 9
6 9 10 12 10 8 9 10 8 5 5 4 4 2 1 1 1 2 3 3 3 1 1 1 2 1 2 2 3 3 3 4 3 3 4 4 4 4
7 9 11 10 7 7 6 5 4 4 4 4 3 2 1 2 2 2 2 2 3 3 4 1 1 2 1 2 2 3 3 4 4 4 4 4 4 4
7 5 4 4 3 3 3 4 3 4 4 3 3 2 2 2 1 1 1 2 2 1 3 4 3 1 3 3 2 3 3 4 4 4 3 4 5 5
7 5 4 4 3 3 4 3 2 3 3 3 3 2 2 2 1 1 1 2 1 1 2 2 2 4 4 3 4 3 3 4 4 4 3 3 5 6
5 4 4 3 3 3 3 3 2 2 2 3 3 2 2 1 1 1 1 1 1 1 2 1 1 1 2 4 7 4 3 4 4 4 4 3 5 7
3 4 4 4 4 4 3 3 2 2 2 2 2 2 2 2 1 1 0 0 0 1 2 2 1 1 2 3 4 6 6 4 3 4 4 4 5 8
3 3 3 4 4 4 4 3 3 3 2 2 2 2 2 2 1 1 0 0 0 0 1 3 4 5 2 0 3 5 6 6 6 4 4 4 5 5
3 3 3 4 4 4 4 3 3 3 3 2 2 2 2 2 1 1 1 1 1 2 2 3 4 3 1 1 3 5 6 6 8 9 8 6 3 4
4 4 3 4 4 4 4 4 4 3 3 3 2 2 2 1 1 1 1 1 1 2 2 3 3 2 2 2 3 4 6 6 4 5 6 10 11 11
Wind_Direction
174 169 169 192 160 160 156 154 149 152 174 215 72 43 95 94 95 97 97 107 107 103 98 92 87 83 80 77 72 68 62 54 47 40 32 23 16 9
159 151 154 143 102 109 135 138 144 144 148 149 95 82 89 97 89 83 87 97 97 101 99 94 91 88 85 82 77 70 63 55 49 43 37 31 25 19
148 142 139 127 112 98 97 102 113 121 126 107 58 60 70 84 78 76 78 77 85 95 100 95 89 89 89 88 82 74 65 58 51 46 40 34 27 21
147 129 124 115 100 97 99 99 105 114 128 126 88 59 67 85 93 88 82 87 84 91 99 94 89 93 99 98 91 84 73 61 51 41 32 25 21 16
132 128 127 118 105 97 94 98 101 102 103 119 114 78 67 69 73 71 71 64 83 82 84 85 83 88 108 111 109 106 89 65 43 29 18 12 9 5
100 106 110 117 119 113 103 104 106 103 103 109 104 83 68 57 74 71 59 38 54 58 57 68 68 70 84 99 95 93 76 29 8 0 357 354 351 347
95 91 96 104 106 106 109 110 112 109 107 106 102 87 71 68 75 72 84 63 47 40 52 50 48 40 37 38 41 30 9 350 342 340 339 338 337 333
114 97 89 87 90 87 89 92 104 118 122 115 111 110 108 95 87 94 96 82 42 359 58 36 42 31 5 15 11 6 355 345 337 335 333 330 329 327
124 120 109 98 91 92 84 79 76 84 103 125 122 123 127 139 110 90 87 95 99 318 75 37 4 359 339 4 359 354 352 348 341 333 327 324 322 319
111 116 116 113 107 106 99 86 75 69 83 92 106 107 113 115 111 125 121 100 65 17 55 71 345 339 341 347 353 354 348 341 337 335 331 326 322 319
97 102 113 113 115 110 106 101 89 76 80 90 94 92 89 90 99 89 79 84 58 355 7 84 341 339 339 328 330 341 337 333 331 331 329 327 326 324
94 94 106 114 119 114 111 111 107 103 98 84 71 59 59 61 72 97 121 113 107 2 323 71 3 14 348 314 311 322 331 326 324 321 324 326 329 329
115 106 103 110 110 111 112 116 129 128 112 103 91 76 61 53 47 55 100 129 129 187 239 131 114 36 153 303 310 304 308 308 318 315 320 322 323 322
124 120 114 112 107 104 101 111 115 111 103 98 92 84 77 64 44 44 59 79 136 186 217 149 159 177 162 306 298 305 311 306 306 302 308 316 318 319
115 119 114 107 98 90 92 99 102 104 106 105 105 106 116 100 64 45 33 39 35 17 54 143 159 180 170 210 268 289 304 304 303 304 306 307 298 305
110 111 103 95 88 90 87 85 88 107 116 119 122 113 81 64 56 61 62 38 32 349 339 350 184 172 208 246 239 278 282 287 298 305 303 299 297 293
124 107 97 95 90 85 82 85 90 97 98 105 110 101 83 71 49 49 78 72 64 348 329 329 329 287 222 211 264 279 287 290 283 296 313 311 297 294
123 125 127 125 128 128 121 109 100 107 113 117 114 115 114 105 76 44 70 81 68 322 305 307 344 3 356 316 234 246 281 277 286 296 292 300 298 298
117 128 137 146 147 145 142 136 135 138 129 126 128 128 127 120 110 84 58 53 20 311 294 300 11 65 12 319 301 255 232 278 293 300 291 269 275 288
128 143 154 158 155 153 153 150 144 135 126 128 129 132 132 131 128 123 115 145 218 307 322 318 299 227 213 242 268 287 277 256 273 290 291 292 280 287
154 155 159 158 156 157 158 155 149 149 151 145 143 149 145 132 134 155 183 250 169 255 295 283 270 280 246 300 314 302 293 286 267 261 277 297 305 312
157 156 161 163 158 156 156 152 148 149 149 148 153 155 149 139 148 162 176 204 240 249 266 278 299 327 2 316 294 292 296 305 311 309 288 252 249 277
162 160 162 166 163 157 154 157 156 158 160 159 159 161 152 144 160 175 199 219 251 276 289 304 318 326 300 275 282 289 298 303 308 317 308 303 299 285